QPF
0.01 0.01 0.01 0.02 0.03 0.05 0.06 0.10 0.16 0.13 0.09 0.10 0.08 0.07 0.07 0.08 0.09 0.13 0.11 0.08 0.08 0.08 0.08 0.08 0.09 0.10 0.10 0.10 0.12 0.13 0.14 0.15 0.19 0.21 0.19 0.18 0.20 0.22 0.21 0.20 0.22 0.26 0.21
0.01 0.01 0.01 0.01 0.01 0.02 0.04 0.03 0.04 0.06 0.06 0.06 0.06 0.06 0.07 0.07 0.08 0.09 0.08 0.07 0.07 0.07 0.08 0.09 0.10 0.10 0.09 0.09 0.11 0.12 0.12 0.12 0.14 0.16 0.19 0.19 0.21 0.21 0.19 0.18 0.18 0.19 0.20
0.01 0.01 0.01 0.01 0.01 0.01 0.01 0.02 0.03 0.04 0.04 0.05 0.06 0.06 0.06 0.06 0.06 0.07 0.08 0.07 0.06 0.07 0.08 0.08 0.10 0.11 0.10 0.09 0.10 0.10 0.10 0.11 0.13 0.14 0.17 0.15 0.15 0.19 0.16 0.14 0.14 0.15 0.16
0.01 0.01 0.01 0.01 0.01 0.01 0.01 0.01 0.02 0.03 0.04 0.04 0.05 0.06 0.07 0.08 0.09 0.09 0.07 0.07 0.06 0.06 0.07 0.07 0.07 0.07 0.08 0.09 0.10 0.10 0.09 0.10 0.11 0.12 0.13 0.12 0.11 0.12 0.12 0.14 0.15 0.16 0.17
0.01 0.01 0.01 0.01 0.01 0.01 0.01 0.01 0.02 0.02 0.02 0.03 0.03 0.04 0.07 0.10 0.10 0.08 0.08 0.06 0.06 0.05 0.05 0.05 0.05 0.06 0.06 0.06 0.08 0.08 0.08 0.09 0.10 0.11 0.14 0.18 0.16 0.12 0.11 0.12 0.15 0.16 0.16
0.01 0.00 0.00 0.00 0.00 0.00 0.01 0.01 0.01 0.01 0.02 0.02 0.02 0.02 0.03 0.05 0.07 0.08 0.09 0.09 0.06 0.06 0.05 0.05 0.05 0.06 0.07 0.08 0.08 0.09 0.10 0.10 0.11 0.11 0.12 0.15 0.17 0.17 0.15 0.14 0.16 0.19 0.20
0.01 0.00 0.00 0.00 0.00 0.00 0.00 0.00 0.01 0.01 0.01 0.01 0.01 0.02 0.01 0.02 0.03 0.05 0.07 0.08 0.06 0.06 0.07 0.06 0.05 0.04 0.04 0.07 0.08 0.08 0.09 0.10 0.13 0.14 0.13 0.13 0.14 0.15 0.16 0.18 0.20 0.21 0.21
0.01 0.00 0.00 0.00 0.00 0.00 0.00 0.00 0.00 0.01 0.01 0.01 0.01 0.01 0.01 0.01 0.01 0.02 0.03 0.04 0.04 0.03 0.04 0.05 0.05 0.05 0.05 0.06 0.08 0.08 0.11 0.12 0.11 0.12 0.12 0.12 0.12 0.13 0.13 0.14 0.16 0.19 0.21
0.02 0.00 0.00 0.00 0.00 0.00 0.00 0.00 0.00 0.00 0.01 0.01 0.01 0.02 0.01 0.01 0.01 0.01 0.01 0.01 0.01 0.01 0.01 0.02 0.03 0.03 0.04 0.05 0.06 0.08 0.10 0.11 0.11 0.11 0.11 0.11 0.12 0.12 0.13 0.14 0.14 0.15 0.17
0.02 0.01 0.01 0.00 0.00 0.00 0.00 0.00 0.00 0.01 0.01 0.01 0.01 0.02 0.01 0.01 0.01 0.01 0.01 0.01 0.01 0.02 0.01 0.01 0.03 0.05 0.04 0.05 0.05 0.05 0.08 0.12 0.13 0.12 0.12 0.13 0.14 0.13 0.13 0.13 0.14 0.14 0.13
0.02 0.01 0.01 0.00 0.00 0.00 0.00 0.00 0.00 0.01 0.00 0.00 0.00 0.01 0.00 0.00 0.00 0.00 0.01 0.01 0.01 0.02 0.03 0.03 0.04 0.06 0.07 0.07 0.05 0.04 0.05 0.07 0.11 0.14 0.15 0.13 0.12 0.10 0.10 0.10 0.11 0.12 0.13
0.03 0.02 0.01 0.00 0.00 0.00 0.00 0.00 0.00 0.01 0.00 0.00 0.01 0.00 0.00 0.00 0.00 0.00 0.00 0.01 0.01 0.01 0.02 0.03 0.04 0.05 0.06 0.08 0.07 0.05 0.04 0.04 0.05 0.08 0.10 0.08 0.06 0.06 0.07 0.08 0.09 0.10 0.11
0.03 0.02 0.02 0.01 0.00 0.00 0.00 0.00 0.00 0.00 0.00 0.00 0.01 0.00 0.00 0.00 0.00 0.00 0.00 0.00 0.01 0.01 0.02 0.02 0.03 0.03 0.03 0.04 0.04 0.03 0.03 0.03 0.03 0.03 0.04 0.04 0.04 0.05 0.06 0.07 0.08 0.09 0.09
0.05 0.05 0.03 0.01 0.01 0.00 0.00 0.00 0.00 0.00 0.00 0.00 0.00 0.00 0.00 0.00 0.00 0.00 0.00 0.00 0.00 0.00 0.00 0.01 0.01 0.01 0.01 0.00 0.01 0.01 0.01 0.01 0.02 0.02 0.03 0.03 0.04 0.05 0.06 0.06 0.06 0.07 0.08
0.08 0.05 0.02 0.01 0.01 0.00 0.00 0.00 0.00 0.00 0.00 0.00 0.01 0.01 0.01 0.00 0.00 0.00 0.00 0.00 0.00 0.00 0.00 0.00 0.00 0.00 0.00 0.00 0.00 0.00 0.00 0.00 0.02 0.03 0.03 0.03 0.05 0.07 0.06 0.06 0.05 0.06 0.07
0.06 0.03 0.02 0.01 0.01 0.01 0.00 0.00 0.00 0.00 0.00 0.00 0.01 0.02 0.02 0.01 0.01 0.01 0.01 0.00 0.00 0.00 0.00 0.00 0.00 0.00 0.00 0.00 0.00 0.00 0.00 0.01 0.01 0.03 0.04 0.04 0.05 0.07 0.07 0.07 0.08 0.08 0.09
0.05 0.03 0.02 0.02 0.02 0.01 0.01 0.00 0.00 0.00 0.00 0.01 0.01 0.02 0.02 0.02 0.02 0.02 0.01 0.01 0.01 0.00 0.00 0.00 0.00 0.00 0.01 0.01 0.01 0.01 0.01 0.01 0.02 0.03 0.03 0.04 0.05 0.05 0.04 0.06 0.09 0.10 0.11
0.05 0.03 0.02 0.02 0.02 0.01 0.01 0.00 0.00 0.00 0.00 0.01 0.02 0.02 0.02 0.03 0.03 0.02 0.02 0.01 0.01 0.01 0.01 0.01 0.01 0.01 0.01 0.01 0.01 0.01 0.01 0.01 0.03 0.04 0.04 0.04 0.05 0.05 0.05 0.05 0.06 0.07 0.07
0.02 0.02 0.02 0.01 0.01 0.01 0.01 0.01 0.01 0.01 0.01 0.02 0.02 0.02 0.03 0.03 0.03 0.02 0.02 0.01 0.01 0.01 0.01 0.01 0.01 0.01 0.01 0.01 0.01 0.01 0.01 0.01 0.02 0.03 0.04 0.05 0.06 0.07 0.06 0.05 0.05 0.04 0.04
0.01 0.01 0.01 0.01 0.01 0.01 0.01 0.01 0.01 0.01 0.02 0.03 0.03 0.02 0.03 0.02 0.02 0.02 0.02 0.02 0.01 0.01 0.01 0.01 0.01 0.00 0.01 0.01 0.01 0.02 0.01 0.01 0.02 0.02 0.04 0.05 0.05 0.05 0.04 0.04 0.04 0.04 0.03
0.01 0.01 0.01 0.01 0.01 0.01 0.01 0.01 0.01 0.01 0.01 0.01 0.01 0.02 0.02 0.02 0.02 0.01 0.02 0.02 0.02 0.01 0.01 0.01 0.01 0.01 0.01 0.01 0.01 0.01 0.01 0.01 0.01 0.02 0.02 0.03 0.03 0.03 0.03 0.02 0.02 0.02 0.02
0.02 0.01 0.01 0.01 0.01 0.01 0.01 0.01 0.01 0.01 0.00 0.01 0.01 0.01 0.01 0.01 0.01 0.01 0.02 0.02 0.02 0.02 0.01 0.01 0.01 0.01 0.01 0.01 0.01 0.01 0.01 0.01 0.01 0.01 0.02 0.02 0.02 0.02 0.01 0.01 0.01 0.01 0.01
0.02 0.02 0.02 0.02 0.02 0.01 0.01 0.01 0.01 0.01 0.00 0.01 0.01 0.01 0.01 0.01 0.01 0.01 0.01 0.01 0.01 0.01 0.01 0.01 0.00 0.01 0.01 0.02 0.01 0.01 0.01 0.01 0.01 0.01 0.01 0.01 0.01 0.01 0.01 0.01 0.01 0.00 0.00
0.02 0.03 0.03 0.02 0.02 0.02 0.03 0.04 0.03 0.01 0.01 0.01 0.01 0.01 0.01 0.01 0.01 0.01 0.01 0.00 0.00 0.01 0.00 0.00 0.01 0.01 0.01 0.02 0.02 0.01 0.01 0.01 0.01 0.01 0.01 0.01 0.01 0.01 0.01 0.00 0.00 0.00 0.00
0.02 0.02 0.02 0.02 0.02 0.02 0.02 0.02 0.01 0.01 0.01 0.01 0.01 0.01 0.01 0.01 0.01 0.01 0.00 0.00 0.00 0.01 0.01 0.00 0.00 0.01 0.01 0.02 0.02 0.02 0.01 0.01 0.01 0.01 0.01 0.00 0.00 0.00 0.00 0.00 0.00 0.00 0.00
0.01 0.00 0.01 0.02 0.02 0.01 0.01 0.01 0.01 0.01 0.01 0.01 0.01 0.01 0.01 0.01 0.01 0.00 0.00 0.00 0.00 0.00 0.00 0.00 0.00 0.00 0.01 0.02 0.02 0.01 0.01 0.00 0.01 0.01 0.01 0.00 0.00 0.00 0.00 0.00 0.00 0.00 0.00
MSLP
1016.32 1016.69 1017.00 1017.23 1017.34 1017.33 1017.23 1017.05 1016.84 1016.66 1016.54 1016.48 1016.50 1016.56 1016.64 1016.70 1016.72 1016.70 1016.64 1016.56 1016.50 1016.48 1016.52 1016.64 1016.81 1017.00 1017.19 1017.33 1017.39 1017.37 1017.27 1017.11 1016.93 1016.77 1016.65 1016.59 1016.59 1016.65 1016.72 1016.80 1016.87 1016.91 1016.94
1016.40 1016.86 1017.25 1017.53 1017.67 1017.66 1017.54 1017.34 1017.12 1016.94 1016.83 1016.79 1016.83 1016.90 1016.98 1017.03 1017.01 1016.94 1016.83 1016.71 1016.62 1016.59 1016.64 1016.77 1016.95 1017.14 1017.31 1017.41 1017.41 1017.31 1017.13 1016.89 1016.66 1016.47 1016.37 1016.35 1016.43 1016.57 1016.75 1016.91 1017.05 1017.13 1017.18
1016.56 1017.11 1017.58 1017.93 1018.11 1018.12 1018.00 1017.80 1017.58 1017.40 1017.29 1017.26 1017.30 1017.37 1017.43 1017.44 1017.39 1017.26 1017.10 1016.92 1016.79 1016.73 1016.76 1016.88 1017.04 1017.22 1017.35 1017.40 1017.34 1017.18 1016.93 1016.65 1016.39 1016.19 1016.11 1016.14 1016.29 1016.52 1016.79 1017.04 1017.24 1017.38 1017.44
1016.74 1017.39 1017.97 1018.40 1018.64 1018.70 1018.61 1018.42 1018.21 1018.03 1017.92 1017.88 1017.91 1017.96 1017.98 1017.95 1017.84 1017.65 1017.42 1017.19 1017.01 1016.90 1016.89 1016.97 1017.10 1017.23 1017.32 1017.32 1017.22 1017.00 1016.72 1016.40 1016.13 1015.94 1015.88 1015.96 1016.17 1016.47 1016.80 1017.13 1017.39 1017.58 1017.67
1016.91 1017.67 1018.36 1018.89 1019.22 1019.35 1019.31 1019.16 1018.96 1018.78 1018.66 1018.60 1018.60 1018.61 1018.59 1018.50 1018.33 1018.08 1017.79 1017.50 1017.26 1017.09 1017.02 1017.04 1017.12 1017.20 1017.25 1017.20 1017.06 1016.82 1016.52 1016.20 1015.92 1015.75 1015.71 1015.82 1016.05 1016.39 1016.77 1017.13 1017.44 1017.67 1017.82
1017.03 1017.90 1018.70 1019.35 1019.79 1020.00 1020.03 1019.92 1019.74 1019.57 1019.43 1019.35 1019.30 1019.26 1019.19 1019.04 1018.82 1018.52 1018.18 1017.83 1017.52 1017.30 1017.16 1017.12 1017.13 1017.16 1017.15 1017.08 1016.91 1016.67 1016.37 1016.06 1015.80 1015.64 1015.60 1015.71 1015.94 1016.28 1016.66 1017.04 1017.38 1017.65 1017.85
1017.08 1018.05 1018.97 1019.73 1020.27 1020.57 1020.67 1020.62 1020.47 1020.30 1020.15 1020.03 1019.95 1019.86 1019.74 1019.55 1019.28 1018.94 1018.55 1018.16 1017.80 1017.51 1017.31 1017.20 1017.15 1017.12 1017.07 1016.97 1016.80 1016.57 1016.29 1016.00 1015.76 1015.61 1015.57 1015.65 1015.85 1016.14 1016.49 1016.86 1017.21 1017.52 1017.79
1017.09 1018.14 1019.14 1019.99 1020.62 1021.01 1021.18 1021.18 1021.07 1020.91 1020.75 1020.61 1020.49 1020.36 1020.20 1019.98 1019.68 1019.31 1018.90 1018.47 1018.07 1017.73 1017.47 1017.29 1017.18 1017.10 1017.02 1016.91 1016.75 1016.54 1016.30 1016.05 1015.83 1015.68 1015.62 1015.66 1015.80 1016.03 1016.32 1016.65 1016.99 1017.35 1017.70
1017.08 1018.17 1019.22 1020.13 1020.83 1021.29 1021.52 1021.57 1021.49 1021.35 1021.19 1021.04 1020.90 1020.75 1020.57 1020.33 1020.02 1019.64 1019.21 1018.77 1018.34 1017.96 1017.65 1017.42 1017.25 1017.12 1017.02 1016.91 1016.77 1016.60 1016.40 1016.20 1016.01 1015.86 1015.78 1015.76 1015.83 1015.98 1016.20 1016.48 1016.82 1017.20 1017.63
1017.11 1018.21 1019.27 1020.20 1020.92 1021.42 1021.70 1021.79 1021.75 1021.64 1021.50 1021.35 1021.21 1021.05 1020.87 1020.62 1020.32 1019.94 1019.52 1019.07 1018.62 1018.21 1017.86 1017.58 1017.37 1017.21 1017.09 1016.98 1016.87 1016.75 1016.60 1016.45 1016.30 1016.16 1016.05 1015.99 1015.99 1016.06 1016.21 1016.44 1016.76 1017.18 1017.68
1017.22 1018.28 1019.31 1020.21 1020.94 1021.45 1021.76 1021.89 1021.89 1021.82 1021.71 1021.58 1021.45 1021.30 1021.12 1020.89 1020.60 1020.24 1019.83 1019.38 1018.92 1018.50 1018.11 1017.80 1017.55 1017.37 1017.23 1017.14 1017.06 1016.98 1016.89 1016.79 1016.68 1016.56 1016.45 1016.36 1016.31 1016.32 1016.41 1016.60 1016.91 1017.35 1017.91
1017.42 1018.42 1019.38 1020.24 1020.93 1021.43 1021.75 1021.92 1021.96 1021.93 1021.86 1021.77 1021.67 1021.54 1021.38 1021.17 1020.89 1020.55 1020.15 1019.71 1019.26 1018.82 1018.42 1018.08 1017.81 1017.60 1017.47 1017.38 1017.32 1017.29 1017.25 1017.21 1017.14 1017.05 1016.96 1016.86 1016.78 1016.76 1016.82 1016.98 1017.28 1017.73 1018.32
1017.71 1018.63 1019.51 1020.29 1020.93 1021.41 1021.73 1021.92 1022.01 1022.03 1022.00 1021.95 1021.88 1021.78 1021.64 1021.45 1021.19 1020.87 1020.49 1020.07 1019.63 1019.19 1018.79 1018.43 1018.14 1017.92 1017.78 1017.69 1017.66 1017.66 1017.67 1017.67 1017.66 1017.61 1017.54 1017.46 1017.39 1017.36 1017.41 1017.56 1017.85 1018.29 1018.89
1018.07 1018.90 1019.69 1020.38 1020.96 1021.41 1021.73 1021.94 1022.06 1022.12 1022.14 1022.13 1022.10 1022.02 1021.91 1021.73 1021.50 1021.20 1020.84 1020.45 1020.02 1019.60 1019.20 1018.84 1018.55 1018.32 1018.17 1018.09 1018.07 1018.08 1018.13 1018.17 1018.20 1018.20 1018.18 1018.14 1018.09 1018.08 1018.13 1018.29 1018.57 1018.99 1019.56
1018.46 1019.20 1019.89 1020.50 1021.01 1021.42 1021.73 1021.96 1022.11 1022.21 1022.27 1022.30 1022.29 1022.24 1022.14 1021.99 1021.78 1021.51 1021.18 1020.82 1020.43 1020.03 1019.65 1019.31 1019.02 1018.79 1018.64 1018.55 1018.53 1018.55 1018.61 1018.69 1018.75 1018.80 1018.82 1018.83 1018.83 1018.85 1018.92 1019.08 1019.35 1019.74 1020.26
1018.83 1019.48 1020.09 1020.62 1021.07 1021.44 1021.73 1021.96 1022.14 1022.27 1022.36 1022.42 1022.43 1022.40 1022.32 1022.20 1022.01 1021.77 1021.49 1021.17 1020.83 1020.48 1020.14 1019.82 1019.55 1019.33 1019.17 1019.08 1019.04 1019.06 1019.13 1019.21 1019.30 1019.38 1019.45 1019.50 1019.55 1019.61 1019.71 1019.87 1020.12 1020.48 1020.93
1019.15 1019.74 1020.27 1020.73 1021.12 1021.45 1021.72 1021.95 1022.14 1022.28 1022.40 1022.47 1022.51 1022.50 1022.45 1022.35 1022.20 1022.00 1021.78 1021.52 1021.24 1020.95 1020.66 1020.39 1020.14 1019.93 1019.77 1019.66 1019.61 1019.62 1019.67 1019.75 1019.84 1019.95 1020.04 1020.14 1020.22 1020.32 1020.45 1020.62 1020.85 1021.15 1021.53
1019.44 1019.96 1020.42 1020.82 1021.16 1021.45 1021.70 1021.91 1022.10 1022.25 1022.38 1022.47 1022.52 1022.54 1022.52 1022.45 1022.35 1022.22 1022.06 1021.87 1021.66 1021.44 1021.22 1020.99 1020.78 1020.59 1020.43 1020.32 1020.24 1020.22 1020.25 1020.31 1020.40 1020.50 1020.62 1020.74 1020.85 1020.98 1021.12 1021.29 1021.50 1021.75 1022.05
1019.69 1020.16 1020.57 1020.91 1021.20 1021.45 1021.67 1021.86 1022.04 1022.20 1022.33 1022.44 1022.52 1022.57 1022.58 1022.57 1022.52 1022.46 1022.37 1022.26 1022.13 1021.98 1021.82 1021.65 1021.47 1021.30 1021.15 1021.02 1020.93 1020.88 1020.87 1020.91 1020.98 1021.07 1021.19 1021.32 1021.45 1021.59 1021.73 1021.90 1022.08 1022.29 1022.53
1019.95 1020.37 1020.72 1021.01 1021.25 1021.46 1021.65 1021.83 1022.00 1022.16 1022.31 1022.44 1022.55 1022.64 1022.70 1022.74 1022.76 1022.76 1022.74 1022.71 1022.65 1022.57 1022.46 1022.34 1022.20 1022.04 1021.90 1021.76 1021.65 1021.57 1021.54 1021.54 1021.59 1021.67 1021.77 1021.89 1022.03 1022.17 1022.32 1022.47 1022.63 1022.80 1022.98
1020.22 1020.60 1020.90 1021.15 1021.35 1021.52 1021.68 1021.84 1022.01 1022.17 1022.34 1022.50 1022.65 1022.78 1022.90 1023.00 1023.09 1023.16 1023.20 1023.23 1023.23 1023.20 1023.14 1023.04 1022.92 1022.79 1022.64 1022.50 1022.38 1022.28 1022.22 1022.20 1022.22 1022.28 1022.37 1022.48 1022.61 1022.74 1022.88 1023.02 1023.16 1023.30 1023.44
1020.52 1020.85 1021.11 1021.32 1021.48 1021.62 1021.76 1021.91 1022.08 1022.26 1022.45 1022.65 1022.84 1023.03 1023.21 1023.37 1023.52 1023.64 1023.73 1023.80 1023.84 1023.84 1023.80 1023.72 1023.61 1023.48 1023.34 1023.20 1023.07 1022.96 1022.88 1022.85 1022.85 1022.89 1022.97 1023.06 1023.17 1023.30 1023.42 1023.55 1023.68 1023.80 1023.91
1020.82 1021.12 1021.34 1021.51 1021.64 1021.76 1021.89 1022.03 1022.21 1022.41 1022.63 1022.87 1023.12 1023.37 1023.60 1023.82 1024.01 1024.17 1024.30 1024.39 1024.44 1024.44 1024.40 1024.33 1024.22 1024.08 1023.94 1023.80 1023.67 1023.56 1023.48 1023.44 1023.44 1023.47 1023.52 1023.60 1023.70 1023.81 1023.93 1024.04 1024.16 1024.27 1024.37
1021.11 1021.37 1021.55 1021.69 1021.80 1021.91 1022.03 1022.18 1022.37 1022.60 1022.86 1023.14 1023.44 1023.74 1024.02 1024.28 1024.51 1024.69 1024.83 1024.92 1024.96 1024.95 1024.90 1024.81 1024.69 1024.55 1024.40 1024.26 1024.14 1024.04 1023.97 1023.94 1023.93 1023.95 1024.00 1024.07 1024.16 1024.25 1024.36 1024.46 1024.57 1024.68 1024.78
1021.34 1021.57 1021.73 1021.84 1021.94 1022.04 1022.16 1022.32 1022.53 1022.79 1023.08 1023.40 1023.74 1024.08 1024.40 1024.69 1024.93 1025.13 1025.26 1025.34 1025.36 1025.32 1025.24 1025.13 1024.99 1024.85 1024.70 1024.57 1024.46 1024.38 1024.32 1024.30 1024.30 1024.32 1024.37 1024.43 1024.50 1024.59 1024.68 1024.78 1024.89 1025.00 1025.10
1021.50 1021.70 1021.84 1021.94 1022.03 1022.13 1022.26 1022.43 1022.65 1022.93 1023.25 1023.60 1023.97 1024.33 1024.67 1024.98 1025.23 1025.42 1025.54 1025.60 1025.59 1025.53 1025.43 1025.29 1025.14 1024.99 1024.85 1024.73 1024.63 1024.56 1024.53 1024.52 1024.53 1024.56 1024.60 1024.66 1024.72 1024.80 1024.89 1024.99 1025.09 1025.20 1025.31
Thickness
5695 5696 5696 5694 5692 5691 5691 5693 5694 5697 5697 5698 5698 5699 5701 5702 5703 5703 5703 5704 5704 5704 5705 5704 5703 5703 5702 5701 5700 5698 5696 5695 5694 5691 5688 5688 5690 5692 5692 5693 5693 5694 5694
5688 5689 5688 5687 5686 5684 5684 5685 5688 5689 5689 5690 5692 5693 5694 5695 5695 5695 5695 5696 5696 5697 5697 5697 5697 5697 5696 5695 5694 5693 5691 5690 5690 5686 5681 5678 5679 5682 5684 5685 5686 5686 5686
5684 5682 5680 5679 5679 5679 5678 5679 5679 5679 5680 5683 5685 5686 5685 5684 5683 5684 5685 5686 5687 5688 5688 5688 5689 5689 5689 5689 5688 5688 5687 5685 5684 5685 5681 5676 5675 5674 5675 5677 5678 5679 5679
5679 5676 5673 5671 5671 5670 5670 5670 5670 5670 5671 5673 5674 5674 5672 5671 5671 5672 5674 5676 5678 5678 5679 5679 5680 5681 5682 5682 5682 5684 5683 5682 5680 5680 5681 5681 5679 5672 5668 5668 5669 5670 5671
5673 5670 5668 5666 5664 5663 5662 5661 5661 5661 5662 5663 5663 5663 5662 5661 5661 5662 5664 5665 5666 5668 5669 5670 5671 5672 5674 5674 5675 5676 5677 5678 5677 5676 5675 5674 5673 5672 5667 5662 5661 5660 5660
5669 5665 5662 5660 5657 5655 5653 5652 5650 5650 5651 5653 5653 5653 5652 5651 5651 5651 5652 5653 5655 5657 5659 5661 5663 5664 5665 5666 5667 5669 5670 5672 5672 5672 5672 5671 5669 5667 5665 5661 5657 5653 5651
5662 5658 5655 5652 5649 5647 5645 5643 5642 5641 5641 5642 5643 5643 5643 5642 5641 5641 5641 5643 5644 5646 5649 5651 5653 5655 5656 5658 5660 5661 5663 5665 5666 5666 5666 5667 5666 5666 5663 5659 5652 5646 5642
5656 5653 5649 5646 5643 5641 5638 5635 5634 5633 5633 5633 5633 5633 5633 5633 5632 5632 5633 5633 5634 5636 5639 5642 5644 5647 5649 5650 5652 5653 5655 5657 5659 5660 5660 5661 5661 5661 5659 5656 5649 5641 5635
5650 5647 5643 5639 5636 5633 5630 5628 5626 5625 5624 5624 5624 5624 5624 5623 5623 5624 5624 5625 5627 5629 5632 5634 5636 5639 5641 5642 5644 5645 5646 5648 5650 5651 5653 5653 5653 5653 5653 5652 5649 5644 5635
5645 5641 5636 5632 5628 5624 5621 5619 5617 5616 5615 5614 5614 5615 5615 5615 5615 5616 5616 5618 5619 5621 5624 5626 5628 5629 5632 5634 5635 5636 5638 5640 5641 5643 5645 5645 5645 5645 5645 5644 5643 5641 5637
5641 5635 5629 5624 5620 5616 5613 5610 5609 5608 5606 5605 5605 5605 5605 5606 5607 5607 5609 5610 5611 5613 5615 5616 5618 5619 5622 5624 5626 5627 5629 5630 5632 5633 5634 5636 5637 5636 5636 5635 5634 5632 5629
5635 5630 5623 5617 5612 5608 5605 5602 5600 5599 5598 5597 5596 5596 5596 5597 5598 5598 5600 5601 5602 5604 5605 5607 5608 5610 5611 5613 5615 5617 5619 5620 5622 5623 5625 5626 5627 5627 5627 5627 5625 5623 5621
5627 5621 5615 5609 5604 5600 5597 5594 5592 5591 5590 5588 5587 5587 5587 5587 5587 5588 5589 5591 5592 5593 5595 5596 5597 5599 5600 5602 5604 5606 5608 5609 5611 5612 5614 5616 5618 5618 5618 5618 5616 5614 5611
5619 5613 5605 5600 5596 5592 5589 5586 5584 5583 5581 5580 5578 5577 5577 5577 5578 5579 5579 5580 5582 5583 5584 5585 5586 5588 5590 5592 5594 5595 5596 5598 5600 5602 5604 5606 5608 5608 5609 5608 5607 5604 5599
5611 5604 5597 5592 5588 5583 5580 5578 5575 5574 5572 5571 5569 5568 5568 5568 5569 5569 5569 5569 5570 5571 5573 5574 5575 5577 5579 5580 5582 5584 5586 5587 5589 5591 5593 5595 5597 5598 5600 5600 5597 5595 5590
5603 5596 5590 5584 5579 5575 5571 5568 5566 5564 5563 5561 5560 5559 5559 5558 5558 5558 5558 5558 5558 5560 5561 5562 5563 5565 5567 5569 5571 5573 5574 5576 5578 5580 5582 5584 5585 5588 5589 5589 5588 5587 5584
5594 5587 5581 5575 5571 5567 5563 5560 5557 5556 5554 5552 5551 5550 5550 5549 5548 5548 5547 5547 5547 5548 5549 5550 5552 5553 5555 5558 5560 5562 5564 5565 5567 5568 5571 5573 5574 5576 5577 5577 5577 5576 5574
5586 5580 5573 5568 5564 5560 5556 5553 5550 5547 5546 5544 5543 5541 5540 5539 5538 5537 5536 5536 5536 5537 5538 5539 5541 5542 5544 5547 5550 5552 5554 5555 5556 5558 5560 5561 5562 5565 5567 5567 5565 5564 5563
5579 5573 5567 5562 5557 5553 5549 5545 5542 5539 5538 5536 5534 5533 5532 5530 5529 5528 5527 5527 5527 5528 5528 5529 5531 5532 5534 5538 5540 5542 5543 5544 5545 5547 5549 5551 5552 5554 5556 5557 5555 5553 5552
5571 5565 5560 5555 5550 5545 5542 5537 5533 5531 5530 5528 5527 5525 5524 5522 5521 5520 5519 5519 5520 5519 5520 5520 5521 5523 5524 5528 5531 5533 5534 5534 5535 5537 5539 5541 5543 5544 5547 5547 5546 5544 5542
5564 5558 5553 5548 5543 5539 5535 5530 5527 5524 5523 5522 5520 5518 5517 5515 5514 5513 5512 5512 5512 5512 5512 5512 5513 5514 5516 5520 5522 5525 5526 5527 5528 5529 5530 5532 5535 5536 5538 5538 5538 5537 5536
5556 5551 5545 5541 5537 5533 5529 5525 5521 5519 5517 5515 5513 5512 5510 5510 5509 5507 5506 5506 5505 5505 5504 5505 5506 5507 5509 5512 5516 5518 5520 5522 5522 5522 5523 5526 5528 5530 5531 5531 5532 5532 5531
5549 5544 5540 5535 5531 5528 5525 5520 5517 5515 5512 5510 5507 5505 5504 5503 5503 5502 5501 5500 5500 5499 5498 5499 5499 5500 5503 5506 5510 5512 5514 5516 5517 5517 5520 5522 5524 5525 5525 5526 5527 5526 5525
5544 5539 5534 5530 5526 5524 5521 5518 5515 5511 5508 5505 5502 5501 5499 5498 5497 5497 5497 5496 5496 5495 5495 5495 5494 5495 5498 5500 5504 5507 5509 5511 5513 5514 5516 5518 5519 5520 5521 5521 5521 5521 5521
5539 5535 5530 5526 5522 5520 5517 5515 5512 5508 5505 5502 5500 5497 5495 5494 5493 5492 5491 5492 5493 5494 5494 5493 5493 5493 5494 5497 5501 5503 5505 5507 5509 5510 5512 5513 5514 5514 5515 5516 5517 5518 5518
5537 5532 5527 5524 5520 5517 5514 5512 5510 5507 5503 5500 5497 5495 5493 5492 5490 5490 5489 5490 5491 5493 5494 5494 5494 5494 5495 5497 5499 5502 5504 5506 5508 5508 5508 5508 5510 5511 5512 5513 5513 5514 5515